Satellite: ORSTED
Catalog number: 25635
Epoch time:      103001.94952352
Element set:     804 
Inclination:       96.4462 deg
RA of node:       359.5973 deg
Eccentricity:    0.0146391
Arg of perigee:   119.7876 deg
Mean anomaly:     241.7945 deg
Mean motion:   14.44754257 rev/day
Decay rate:    7.2200E-006 rev/day^2
Epoch rev:           20306
Checksum:              321

Satellite: SUNSAT
Catalog number: 25636
Epoch time:      103001.93845697
Element set:     673 
Inclination:       96.4494 deg
RA of node:       358.3444 deg
Eccentricity:    0.0150260
Arg of perigee:   125.8313 deg
Mean anomaly:     235.6950 deg
Mean motion:   14.42910459 rev/day
Decay rate:    3.3100E-006 rev/day^2
Epoch rev:           20294
Checksum:              303

Satellite: UOSAT 12
Catalog number: 25693
Epoch time:      103001.93048509
Element set:     575 
Inclination:       64.5578 deg
RA of node:       156.5863 deg
Eccentricity:    0.0016190
Arg of perigee:   317.5216 deg
Mean anomaly:      42.4623 deg
Mean motion:   14.76328777 rev/day
Decay rate:    4.3800E-006 rev/day^2
Epoch rev:           19922
Checksum:              323

Satellite: FENGYUN 1C
Catalog number: 25730
Epoch time:      103001.95443176
Element set:     751 
Inclination:       98.6374 deg
RA of node:        28.1384 deg
Eccentricity:    0.0015188
Arg of perigee:   136.2105 deg
Mean anomaly:     224.0273 deg
Mean motion:   14.11729563 rev/day
Decay rate:    1.6300E-006 rev/day^2
Epoch rev:           18791
Checksum:              287

Satellite: ASTRA 1H
Catalog number: 25785
Epoch time:      102364.00000000
Element set:     367 
Inclination:        0.0122 deg
RA of node:       319.8851 deg
Eccentricity:    0.0002995
Arg of perigee:    65.1991 deg
Mean anomaly:      92.3410 deg
Mean motion:    1.00273184 rev/day
Decay rate:    1.2799E-006 rev/day^2
Epoch rev:            1299
Checksum:              264

Satellite: TERRA
Catalog number: 25994
Epoch time:      103001.79346847
Element set:     557 
Inclination:       98.2071 deg
RA of node:        78.7367 deg
Eccentricity:    0.0000694
Arg of perigee:    93.9908 deg
Mean anomaly:     266.1380 deg
Mean motion:   14.57154021 rev/day
Decay rate:    4.0099E-006 rev/day^2
Epoch rev:           16171
Checksum:              446

Satellite: JAWSAT
Catalog number: 26061
Epoch time:      102365.24066314
Element set:     729 
Inclination:      100.2134 deg
RA of node:        48.1390 deg
Eccentricity:    0.0035596
Arg of perigee:    59.6794 deg
Mean anomaly:     300.7896 deg
Mean motion:   14.37766203 rev/day
Decay rate:    1.0120E-005 rev/day^2
Epoch rev:           15344
Checksum:              285

Satellite: OPAL
Catalog number: 26063
Epoch time:      103001.67046856
Element set:     690 
Inclination:      100.2187 deg
RA of node:        47.5429 deg
Eccentricity:    0.0037421
Arg of perigee:    61.3660 deg
Mean anomaly:     299.1271 deg
Mean motion:   14.35460096 rev/day
Decay rate:    2.1799E-006 rev/day^2
Epoch rev:           15352
Checksum:              294

Satellite: ASUSAT
Catalog number: 26065
Epoch time:      102365.23421649
Element set:     697 
Inclination:      100.2176 deg
RA of node:        45.9833 deg
Eccentricity:    0.0037844
Arg of perigee:    67.2794 deg
Mean anomaly:     293.2379 deg
Mean motion:   14.35485741 rev/day
Decay rate:    3.6399E-006 rev/day^2
Epoch rev:           15330
Checksum:              331

Satellite: GOES 11
Catalog number: 26352
Epoch time:      103001.30881557
Element set:     955 
Inclination:        0.0354 deg
RA of node:       133.9689 deg
Eccentricity:    0.0004591
Arg of perigee:   138.8129 deg
Mean anomaly:     187.0809 deg
Mean motion:    1.00259889 rev/day
Decay rate:   -3.8999E-007 rev/day^2
Epoch rev:             975
Checksum:              440

Satellite: EUTELSAT W4
Catalog number: 26369
Epoch time:      102365.18646413
Element set:     333 
Inclination:        0.0259 deg
RA of node:       353.0035 deg
Eccentricity:    0.0011446
Arg of perigee:   318.6583 deg
Mean anomaly:     250.9239 deg
Mean motion:    1.00274665 rev/day
Decay rate:    1.6100E-006 rev/day^2
Epoch rev:             955
Checksum:              275

Satellite: FENGYUN 2B
Catalog number: 26382
Epoch time:      103001.90659179
Element set:     761 
Inclination:        0.6868 deg
RA of node:       286.6482 deg
Eccentricity:    0.0000426
Arg of perigee:   204.2313 deg
Mean anomaly:      41.2136 deg
Mean motion:    1.00272208 rev/day
Decay rate:   -3.2699E-006 rev/day^2
Epoch rev:             923
Checksum:              277

Satellite: EUTELSAT W1
Catalog number: 26487
Epoch time:      102365.14877895
Element set:     334 
Inclination:        0.0277 deg
RA of node:       118.3689 deg
Eccentricity:    0.0003899
Arg of perigee:   159.0833 deg
Mean anomaly:     245.4310 deg
Mean motion:    1.00270091 rev/day
Decay rate:    7.4000E-007 rev/day^2
Epoch rev:             852
Checksum:              294

Satellite: ASTRA 2B
Catalog number: 26494
Epoch time:      102364.00000000
Element set:     250 
Inclination:        0.0178 deg
RA of node:       354.5658 deg
Eccentricity:    0.0005000
Arg of perigee:   302.8402 deg
Mean anomaly:     189.0339 deg
Mean motion:    1.00276704 rev/day
Decay rate:    1.5800E-006 rev/day^2
Epoch rev:             841
Checksum:              227

Satellite: NOAA 16
Catalog number: 26536
Epoch time:      103001.95966928
Element set:     149 
Inclination:       98.8958 deg
RA of node:       310.6112 deg
Eccentricity:    0.0011418
Arg of perigee:    82.0248 deg
Mean anomaly:     278.2208 deg
Mean motion:   14.11875225 rev/day
Decay rate:    2.1799E-006 rev/day^2
Epoch rev:           11743
Checksum:              324

Satellite: SAUDISAT 1A
Catalog number: 26545
Epoch time:      103001.80536377
Element set:     392 
Inclination:       64.5566 deg
RA of node:       178.7069 deg
Eccentricity:    0.0055060
Arg of perigee:   246.1414 deg
Mean anomaly:     113.3886 deg
Mean motion:   14.78825475 rev/day
Decay rate:    1.0380E-005 rev/day^2
Epoch rev:           12215
Checksum:              305

Satellite: UNISAT
Catalog number: 26547
Epoch time:      103001.81501062
Element set:     415 
Inclination:       64.5560 deg
RA of node:       181.0874 deg
Eccentricity:    0.0062074
Arg of perigee:   248.7262 deg
Mean anomaly:     110.7138 deg
Mean motion:   14.79493574 rev/day
Decay rate:    1.8110E-005 rev/day^2
Epoch rev:           12212
Checksum:              272

Satellite: TIUNGSAT 1
Catalog number: 26548
Epoch time:      103001.56347027
Element set:     397 
Inclination:       64.5555 deg
RA of node:       172.8690 deg
Eccentricity:    0.0048446
Arg of perigee:   244.6271 deg
Mean anomaly:     114.9794 deg
Mean motion:   14.81071780 rev/day
Decay rate:    1.4039E-005 rev/day^2
Epoch rev:           12226
Checksum:              313

Satellite: SAUDISAT 1B
Catalog number: 26549
Epoch time:      103001.94254358
Element set:     657 
Inclination:       64.5527 deg
RA of node:       182.1567 deg
Eccentricity:    0.0059243
Arg of perigee:   246.9080 deg
Mean anomaly:     112.5766 deg
Mean motion:   14.77771115 rev/day
Decay rate:    1.1310E-005 rev/day^2
Epoch rev:           12210
Checksum:              294

Satellite: AMSAT OSCAR 40
Catalog number: 26609
Epoch time:      102363.51138608
Element set:     299 
Inclination:        7.8703 deg
RA of node:        73.6119 deg
Eccentricity:    0.7931814
Arg of perigee:   127.4932 deg
Mean anomaly:     332.8254 deg
Mean motion:    1.25597485 rev/day
Decay rate:    3.9999E-008 rev/day^2
Epoch rev:             994
Checksum:              352

Satellite: GOES 12
Catalog number: 26871
Epoch time:      103001.44474885
Element set:     750 
Inclination:        0.4305 deg
RA of node:        98.5383 deg
Eccentricity:    0.0001053
Arg of perigee:    59.1542 deg
Mean anomaly:     358.0255 deg
Mean motion:    1.00261102 rev/day
Decay rate:   -8.3999E-007 rev/day^2
Epoch rev:             535
Checksum:              279

Satellite: STARSHINE 3
Catalog number: 26929
Epoch time:      103001.95425659
Element set:     631 
Inclination:       67.0257 deg
RA of node:       123.4252 deg
Eccentricity:    0.0005713
Arg of perigee:   321.1008 deg
Mean anomaly:      38.9716 deg
Mean motion:   15.98108440 rev/day
Decay rate:    2.8476E-003 rev/day^2
Epoch rev:            7124
Checksum:              294

Satellite: PCSAT
Catalog number: 26931
Epoch time:      103001.93547530
Element set:     367 
Inclination:       67.0490 deg
RA of node:        18.2399 deg
Eccentricity:    0.0005471
Arg of perigee:   255.2628 deg
Mean anomaly:     104.7866 deg
Mean motion:   14.29085946 rev/day
Decay rate:    2.8699E-006 rev/day^2
Epoch rev:            6554
Checksum:              331

Satellite: SAPPHIRE
Catalog number: 26932
Epoch time:      103001.98957910
Element set:     411 
Inclination:       67.0566 deg
RA of node:        17.8178 deg
Eccentricity:    0.0006740
Arg of perigee:   239.5037 deg
Mean anomaly:     120.5399 deg
Mean motion:   14.29273562 rev/day
Decay rate:    1.9399E-006 rev/day^2
Epoch rev:            6557
Checksum:              327

Satellite: ENVISAT
Catalog number: 27386
Epoch time:      103001.90037334
Element set:     806 
Inclination:       98.5510 deg
RA of node:        71.1356 deg
Eccentricity:    0.0000973
Arg of perigee:    98.1395 deg
Mean anomaly:     261.9896 deg
Mean motion:   14.32248860 rev/day
Decay rate:    2.7099E-006 rev/day^2
Epoch rev:            4392
Checksum:              319

